owner,sensor,date,latitude,longitude,vertical_datum,sea_water_practical_salinity,qcFlag 
WAVCIS,ioos:station:WAVCIS:CSI16:1,2010-10-01T00:00:00Z,29.4012,-89.0355,1.0,26.517,11111222 
WAVCIS,ioos:station:WAVCIS:CSI16:1,2010-10-01T00:15:00Z,29.4012,-89.0355,1.0,26.531,11111222 
WAVCIS,ioos:station:WAVCIS:CSI16:1,2010-10-01T00:30:00Z,29.4012,-89.0355,1.0,26.534,11111222 
WAVCIS,ioos:station:WAVCIS:CSI16:1,2010-10-01T00:45:00Z,29.4012,-89.0355,1.0,26.548,11111222 
WAVCIS,ioos:station:WAVCIS:CSI16:1,2010-10-01T01:00:00Z,29.4012,-89.0355,1.0,26.546,11111222 
WAVCIS,ioos:station:WAVCIS:CSI16:1,2010-10-01T01:15:00Z,29.4012,-89.0355,1.0,26.568,11111222 
WAVCIS,ioos:station:WAVCIS:CSI16:1,2010-10-01T01:30:00Z,29.4012,-89.0355,1.0,26.588,11111222 
WAVCIS,ioos:station:WAVCIS:CSI16:1,2010-10-01T01:45:00Z,29.4012,-89.0355,1.0,26.61,11111222 
WAVCIS,ioos:station:WAVCIS:CSI16:1,2010-10-01T02:00:00Z,29.4012,-89.0355,1.0,26.628,11111222 
WAVCIS,ioos:station:WAVCIS:CSI16:1,2010-10-01T02:15:00Z,29.4012,-89.0355,1.0,26.671,11111222 
WAVCIS,ioos:station:WAVCIS:CSI16:1,2010-10-01T02:30:00Z,29.4012,-89.0355,1.0,26.733,11111222 
WAVCIS,ioos:station:WAVCIS:CSI16:1,2010-10-01T02:45:00Z,29.4012,-89.0355,1.0,26.748,11111222 
WAVCIS,ioos:station:WAVCIS:CSI16:1,2010-10-01T03:00:00Z,29.4012,-89.0355,1.0,26.825,11111222 
WAVCIS,ioos:station:WAVCIS:CSI16:1,2010-10-01T03:15:00Z,29.4012,-89.0355,1.0,26.872,11111222 
WAVCIS,ioos:station:WAVCIS:CSI16:1,2010-10-01T03:30:00Z,29.4012,-89.0355,1.0,26.907,11111222 
WAVCIS,ioos:station:WAVCIS:CSI16:1,2010-10-01T03:45:00Z,29.4012,-89.0355,1.0,26.943,11111222 
WAVCIS,ioos:station:WAVCIS:CSI16:1,2010-10-01T04:00:00Z,29.4012,-89.0355,1.0,26.986,11111222 
WAVCIS,ioos:station:WAVCIS:CSI16:1,2010-10-01T04:15:00Z,29.4012,-89.0355,1.0,27.005,11111222 
WAVCIS,ioos:station:WAVCIS:CSI16:1,2010-10-01T04:30:00Z,29.4012,-89.0355,1.0,27.022,11111222 
WAVCIS,ioos:station:WAVCIS:CSI16:1,2010-10-01T04:45:00Z,29.4012,-89.0355,1.0,27.039,11111222 
WAVCIS,ioos:station:WAVCIS:CSI16:1,2010-10-01T05:00:00Z,29.4012,-89.0355,1.0,27.047,11111222 
WAVCIS,ioos:station:WAVCIS:CSI16:1,2010-10-01T05:15:00Z,29.4012,-89.0355,1.0,27.047,11111222 
WAVCIS,ioos:station:WAVCIS:CSI16:1,2010-10-01T05:30:00Z,29.4012,-89.0355,1.0,27.06,11111222 
WAVCIS,ioos:station:WAVCIS:CSI16:1,2010-10-01T05:45:00Z,29.4012,-89.0355,1.0,27.074,11111222 
WAVCIS,ioos:station:WAVCIS:CSI16:1,2010-10-01T06:00:00Z,29.4012,-89.0355,1.0,27.067,11111222 
WAVCIS,ioos:station:WAVCIS:CSI16:1,2010-10-01T06:15:00Z,29.4012,-89.0355,1.0,27.09,11111222 
WAVCIS,ioos:station:WAVCIS:CSI16:1,2010-10-01T06:30:00Z,29.4012,-89.0355,1.0,27.104,11111222 
WAVCIS,ioos:station:WAVCIS:CSI16:1,2010-10-01T06:45:00Z,29.4012,-89.0355,1.0,27.12,11111222 
WAVCIS,ioos:station:WAVCIS:CSI16:1,2010-10-01T07:00:00Z,29.4012,-89.0355,1.0,27.138,11111222 
WAVCIS,ioos:station:WAVCIS:CSI16:1,2010-10-01T07:15:00Z,29.4012,-89.0355,1.0,27.146,11111222 
WAVCIS,ioos:station:WAVCIS:CSI16:1,2010-10-01T07:30:00Z,29.4012,-89.0355,1.0,27.151,11111222 
WAVCIS,ioos:station:WAVCIS:CSI16:1,2010-10-01T07:45:00Z,29.4012,-89.0355,1.0,27.145,11111222 
WAVCIS,ioos:station:WAVCIS:CSI16:1,2010-10-01T08:00:00Z,29.4012,-89.0355,1.0,27.151,11111222 
WAVCIS,ioos:station:WAVCIS:CSI16:1,2010-10-01T08:15:00Z,29.4012,-89.0355,1.0,27.158,11111222 
WAVCIS,ioos:station:WAVCIS:CSI16:1,2010-10-01T08:30:00Z,29.4012,-89.0355,1.0,27.156,11111222 
WAVCIS,ioos:station:WAVCIS:CSI16:1,2010-10-01T08:45:00Z,29.4012,-89.0355,1.0,27.159,11111222 
WAVCIS,ioos:station:WAVCIS:CSI16:1,2010-10-01T09:00:00Z,29.4012,-89.0355,1.0,27.159,11111222 
WAVCIS,ioos:station:WAVCIS:CSI16:1,2010-10-01T09:15:00Z,29.4012,-89.0355,1.0,27.166,11111222 
WAVCIS,ioos:station:WAVCIS:CSI16:1,2010-10-01T09:30:00Z,29.4012,-89.0355,1.0,27.172,11111222 
WAVCIS,ioos:station:WAVCIS:CSI16:1,2010-10-01T09:45:00Z,29.4012,-89.0355,1.0,27.17,11111222 
WAVCIS,ioos:station:WAVCIS:CSI16:1,2010-10-01T10:00:00Z,29.4012,-89.0355,1.0,27.172,11111222 
WAVCIS,ioos:station:WAVCIS:CSI16:1,2010-10-01T10:15:00Z,29.4012,-89.0355,1.0,27.169,11111222 
WAVCIS,ioos:station:WAVCIS:CSI16:1,2010-10-01T10:30:00Z,29.4012,-89.0355,1.0,27.164,11111222 
WAVCIS,ioos:station:WAVCIS:CSI16:1,2010-10-01T10:45:00Z,29.4012,-89.0355,1.0,27.174,11111222 
WAVCIS,ioos:station:WAVCIS:CSI16:1,2010-10-01T11:00:00Z,29.4012,-89.0355,1.0,27.19,11111222 
WAVCIS,ioos:station:WAVCIS:CSI16:1,2010-10-01T11:15:00Z,29.4012,-89.0355,1.0,27.165,11111222 
WAVCIS,ioos:station:WAVCIS:CSI16:1,2010-10-01T11:30:00Z,29.4012,-89.0355,1.0,27.168,11111222 
WAVCIS,ioos:station:WAVCIS:CSI16:1,2010-10-01T11:45:00Z,29.4012,-89.0355,1.0,27.202,11111222 
WAVCIS,ioos:station:WAVCIS:CSI16:1,2010-10-01T12:00:00Z,29.4012,-89.0355,1.0,27.194,11111222 
WAVCIS,ioos:station:WAVCIS:CSI16:1,2010-10-01T12:15:00Z,29.4012,-89.0355,1.0,27.185,11111222 
WAVCIS,ioos:station:WAVCIS:CSI16:1,2010-10-01T12:30:00Z,29.4012,-89.0355,1.0,27.152,11111222 
WAVCIS,ioos:station:WAVCIS:CSI16:1,2010-10-01T12:45:00Z,29.4012,-89.0355,1.0,27.115,11111222 
WAVCIS,ioos:station:WAVCIS:CSI16:1,2010-10-01T13:00:00Z,29.4012,-89.0355,1.0,27.103,11111222 
WAVCIS,ioos:station:WAVCIS:CSI16:1,2010-10-01T13:15:00Z,29.4012,-89.0355,1.0,27.082,11111222 
WAVCIS,ioos:station:WAVCIS:CSI16:1,2010-10-01T13:30:00Z,29.4012,-89.0355,1.0,27.003,11111222 
WAVCIS,ioos:station:WAVCIS:CSI16:1,2010-10-01T13:45:00Z,29.4012,-89.0355,1.0,26.984,11111222 
WAVCIS,ioos:station:WAVCIS:CSI16:1,2010-10-01T14:00:00Z,29.4012,-89.0355,1.0,26.939,11111222 
WAVCIS,ioos:station:WAVCIS:CSI16:1,2010-10-01T14:15:00Z,29.4012,-89.0355,1.0,26.843,11111222 
WAVCIS,ioos:station:WAVCIS:CSI16:1,2010-10-01T14:30:00Z,29.4012,-89.0355,1.0,26.796,11111222 
WAVCIS,ioos:station:WAVCIS:CSI16:1,2010-10-01T14:45:00Z,29.4012,-89.0355,1.0,26.708,11111222 
WAVCIS,ioos:station:WAVCIS:CSI16:1,2010-10-01T15:00:00Z,29.4012,-89.0355,1.0,26.646,11111222 
WAVCIS,ioos:station:WAVCIS:CSI16:1,2010-10-01T15:15:00Z,29.4012,-89.0355,1.0,26.593,11111222 
WAVCIS,ioos:station:WAVCIS:CSI16:1,2010-10-01T15:30:00Z,29.4012,-89.0355,1.0,26.571,11111222 
WAVCIS,ioos:station:WAVCIS:CSI16:1,2010-10-01T15:45:00Z,29.4012,-89.0355,1.0,26.039,11111222 
WAVCIS,ioos:station:WAVCIS:CSI16:1,2010-10-01T16:00:00Z,29.4012,-89.0355,1.0,26.322,11111222 
WAVCIS,ioos:station:WAVCIS:CSI16:1,2010-10-01T16:15:00Z,29.4012,-89.0355,1.0,26.224,11111222 
WAVCIS,ioos:station:WAVCIS:CSI16:1,2010-10-01T16:30:00Z,29.4012,-89.0355,1.0,25.923,11111222 
WAVCIS,ioos:station:WAVCIS:CSI16:1,2010-10-01T16:45:00Z,29.4012,-89.0355,1.0,26.324,11111222 
WAVCIS,ioos:station:WAVCIS:CSI16:1,2010-10-01T17:00:00Z,29.4012,-89.0355,1.0,26.304,11111222 
WAVCIS,ioos:station:WAVCIS:CSI16:1,2010-10-01T17:15:00Z,29.4012,-89.0355,1.0,26.32,11111222 
WAVCIS,ioos:station:WAVCIS:CSI16:1,2010-10-01T17:30:00Z,29.4012,-89.0355,1.0,26.304,11111222 
WAVCIS,ioos:station:WAVCIS:CSI16:1,2010-10-01T17:45:00Z,29.4012,-89.0355,1.0,26.282,11111222 
WAVCIS,ioos:station:WAVCIS:CSI16:1,2010-10-01T18:00:00Z,29.4012,-89.0355,1.0,26.287,11111222 
WAVCIS,ioos:station:WAVCIS:CSI16:1,2010-10-01T18:15:00Z,29.4012,-89.0355,1.0,26.269,11111222 
WAVCIS,ioos:station:WAVCIS:CSI16:1,2010-10-01T18:30:00Z,29.4012,-89.0355,1.0,26.272,11111222 
WAVCIS,ioos:station:WAVCIS:CSI16:1,2010-10-01T18:45:00Z,29.4012,-89.0355,1.0,25.751,11111222 
WAVCIS,ioos:station:WAVCIS:CSI16:1,2010-10-01T19:00:00Z,29.4012,-89.0355,1.0,25.763,11111222 
WAVCIS,ioos:station:WAVCIS:CSI16:1,2010-10-01T19:15:00Z,29.4012,-89.0355,1.0,25.716,11111222 
WAVCIS,ioos:station:WAVCIS:CSI16:1,2010-10-01T19:30:00Z,29.4012,-89.0355,1.0,25.699,11111222 
WAVCIS,ioos:station:WAVCIS:CSI16:1,2010-10-01T19:45:00Z,29.4012,-89.0355,1.0,25.681,11111222 
WAVCIS,ioos:station:WAVCIS:CSI16:1,2010-10-01T20:00:00Z,29.4012,-89.0355,1.0,25.661,11111222 
WAVCIS,ioos:station:WAVCIS:CSI16:1,2010-10-01T20:15:00Z,29.4012,-89.0355,1.0,25.496,11111222 
WAVCIS,ioos:station:WAVCIS:CSI16:1,2010-10-01T20:30:00Z,29.4012,-89.0355,1.0,25.435,11111222 
WAVCIS,ioos:station:WAVCIS:CSI16:1,2010-10-01T20:45:00Z,29.4012,-89.0355,1.0,24.796,11111222 
WAVCIS,ioos:station:WAVCIS:CSI16:1,2010-10-01T21:00:00Z,29.4012,-89.0355,1.0,24.705,11111222 
WAVCIS,ioos:station:WAVCIS:CSI16:1,2010-10-01T21:15:00Z,29.4012,-89.0355,1.0,24.773,11111222 
WAVCIS,ioos:station:WAVCIS:CSI16:1,2010-10-01T21:30:00Z,29.4012,-89.0355,1.0,24.778,11111222 
WAVCIS,ioos:station:WAVCIS:CSI16:1,2010-10-01T21:45:00Z,29.4012,-89.0355,1.0,24.884,11111222 
WAVCIS,ioos:station:WAVCIS:CSI16:1,2010-10-01T22:00:00Z,29.4012,-89.0355,1.0,25.01,11111222 
WAVCIS,ioos:station:WAVCIS:CSI16:1,2010-10-01T22:15:00Z,29.4012,-89.0355,1.0,25.18,11111222 
WAVCIS,ioos:station:WAVCIS:CSI16:1,2010-10-01T22:30:00Z,29.4012,-89.0355,1.0,25.478,11111222 
WAVCIS,ioos:station:WAVCIS:CSI16:1,2010-10-01T22:45:00Z,29.4012,-89.0355,1.0,25.495,11111222 
WAVCIS,ioos:station:WAVCIS:CSI16:1,2010-10-01T23:00:00Z,29.4012,-89.0355,1.0,25.478,11111222 
WAVCIS,ioos:station:WAVCIS:CSI16:1,2010-10-01T23:15:00Z,29.4012,-89.0355,1.0,25.511,11111222 
WAVCIS,ioos:station:WAVCIS:CSI16:1,2010-10-01T23:30:00Z,29.4012,-89.0355,1.0,25.424,11111222 
WAVCIS,ioos:station:WAVCIS:CSI16:1,2010-10-01T23:45:00Z,29.4012,-89.0355,1.0,25.483,11111222 
WAVCIS,ioos:station:WAVCIS:CSI16:1,2010-10-02T00:00:00Z,29.4012,-89.0355,1.0,25.479,11111222 
WAVCIS,ioos:station:WAVCIS:CSI16:1,2010-10-02T00:15:00Z,29.4012,-89.0355,1.0,25.527,11111222 
WAVCIS,ioos:station:WAVCIS:CSI16:1,2010-10-02T00:30:00Z,29.4012,-89.0355,1.0,25.521,11111222 
WAVCIS,ioos:station:WAVCIS:CSI16:1,2010-10-02T00:45:00Z,29.4012,-89.0355,1.0,25.583,11111222 
WAVCIS,ioos:station:WAVCIS:CSI16:1,2010-10-02T01:00:00Z,29.4012,-89.0355,1.0,25.744,11111222 
WAVCIS,ioos:station:WAVCIS:CSI16:1,2010-10-02T01:15:00Z,29.4012,-89.0355,1.0,25.934,11111222 
WAVCIS,ioos:station:WAVCIS:CSI16:1,2010-10-02T01:30:00Z,29.4012,-89.0355,1.0,25.936,11111222 
WAVCIS,ioos:station:WAVCIS:CSI16:1,2010-10-02T01:45:00Z,29.4012,-89.0355,1.0,26.087,11111222 
WAVCIS,ioos:station:WAVCIS:CSI16:1,2010-10-02T02:00:00Z,29.4012,-89.0355,1.0,26.219,11111222 
WAVCIS,ioos:station:WAVCIS:CSI16:1,2010-10-02T02:15:00Z,29.4012,-89.0355,1.0,26.32,11111222 
WAVCIS,ioos:station:WAVCIS:CSI16:1,2010-10-02T02:30:00Z,29.4012,-89.0355,1.0,26.433,11111222 
WAVCIS,ioos:station:WAVCIS:CSI16:1,2010-10-02T02:45:00Z,29.4012,-89.0355,1.0,26.551,11111222 
WAVCIS,ioos:station:WAVCIS:CSI16:1,2010-10-02T03:00:00Z,29.4012,-89.0355,1.0,26.635,11111222 
WAVCIS,ioos:station:WAVCIS:CSI16:1,2010-10-02T03:15:00Z,29.4012,-89.0355,1.0,26.765,11111222 
WAVCIS,ioos:station:WAVCIS:CSI16:1,2010-10-02T03:30:00Z,29.4012,-89.0355,1.0,26.821,11111222 
WAVCIS,ioos:station:WAVCIS:CSI16:1,2010-10-02T03:45:00Z,29.4012,-89.0355,1.0,26.881,11111222 
WAVCIS,ioos:station:WAVCIS:CSI16:1,2010-10-02T04:00:00Z,29.4012,-89.0355,1.0,26.924,11111222 
WAVCIS,ioos:station:WAVCIS:CSI16:1,2010-10-02T04:15:00Z,29.4012,-89.0355,1.0,26.985,11111222 
WAVCIS,ioos:station:WAVCIS:CSI16:1,2010-10-02T04:30:00Z,29.4012,-89.0355,1.0,26.969,11111222 
WAVCIS,ioos:station:WAVCIS:CSI16:1,2010-10-02T04:45:00Z,29.4012,-89.0355,1.0,26.969,11111222 
WAVCIS,ioos:station:WAVCIS:CSI16:1,2010-10-02T05:00:00Z,29.4012,-89.0355,1.0,26.971,11111222 
WAVCIS,ioos:station:WAVCIS:CSI16:1,2010-10-02T05:15:00Z,29.4012,-89.0355,1.0,26.993,11111222 
WAVCIS,ioos:station:WAVCIS:CSI16:1,2010-10-02T05:30:00Z,29.4012,-89.0355,1.0,26.981,11111222 
WAVCIS,ioos:station:WAVCIS:CSI16:1,2010-10-02T05:45:00Z,29.4012,-89.0355,1.0,26.946,11111222 
WAVCIS,ioos:station:WAVCIS:CSI16:1,2010-10-02T06:00:00Z,29.4012,-89.0355,1.0,26.968,11111222 
WAVCIS,ioos:station:WAVCIS:CSI16:1,2010-10-02T06:15:00Z,29.4012,-89.0355,1.0,26.989,11111222 
WAVCIS,ioos:station:WAVCIS:CSI16:1,2010-10-02T06:30:00Z,29.4012,-89.0355,1.0,27.007,11111222 
WAVCIS,ioos:station:WAVCIS:CSI16:1,2010-10-02T06:45:00Z,29.4012,-89.0355,1.0,27.02,11111222 
WAVCIS,ioos:station:WAVCIS:CSI16:1,2010-10-02T07:00:00Z,29.4012,-89.0355,1.0,27.04,11111222 
WAVCIS,ioos:station:WAVCIS:CSI16:1,2010-10-02T07:15:00Z,29.4012,-89.0355,1.0,27.048,11111222 
WAVCIS,ioos:station:WAVCIS:CSI16:1,2010-10-02T07:30:00Z,29.4012,-89.0355,1.0,27.059,11111222 
WAVCIS,ioos:station:WAVCIS:CSI16:1,2010-10-02T07:45:00Z,29.4012,-89.0355,1.0,27.084,11111222 
WAVCIS,ioos:station:WAVCIS:CSI16:1,2010-10-02T08:00:00Z,29.4012,-89.0355,1.0,27.093,11111222 
WAVCIS,ioos:station:WAVCIS:CSI16:1,2010-10-02T08:15:00Z,29.4012,-89.0355,1.0,27.105,11111222 
WAVCIS,ioos:station:WAVCIS:CSI16:1,2010-10-02T08:30:00Z,29.4012,-89.0355,1.0,27.095,11111222 
WAVCIS,ioos:station:WAVCIS:CSI16:1,2010-10-02T08:45:00Z,29.4012,-89.0355,1.0,27.118,11111222 
WAVCIS,ioos:station:WAVCIS:CSI16:1,2010-10-02T09:00:00Z,29.4012,-89.0355,1.0,27.116,11111222 
WAVCIS,ioos:station:WAVCIS:CSI16:1,2010-10-02T09:15:00Z,29.4012,-89.0355,1.0,27.144,11111222 
WAVCIS,ioos:station:WAVCIS:CSI16:1,2010-10-02T09:30:00Z,29.4012,-89.0355,1.0,27.148,11111222 
WAVCIS,ioos:station:WAVCIS:CSI16:1,2010-10-02T09:45:00Z,29.4012,-89.0355,1.0,27.164,11111222 
WAVCIS,ioos:station:WAVCIS:CSI16:1,2010-10-02T10:00:00Z,29.4012,-89.0355,1.0,27.16,11111222 
WAVCIS,ioos:station:WAVCIS:CSI16:1,2010-10-02T10:15:00Z,29.4012,-89.0355,1.0,27.176,11111222 
WAVCIS,ioos:station:WAVCIS:CSI16:1,2010-10-02T10:30:00Z,29.4012,-89.0355,1.0,27.156,11111222 
WAVCIS,ioos:station:WAVCIS:CSI16:1,2010-10-02T10:45:00Z,29.4012,-89.0355,1.0,27.153,11111222 
WAVCIS,ioos:station:WAVCIS:CSI16:1,2010-10-02T11:00:00Z,29.4012,-89.0355,1.0,27.157,11111222 
WAVCIS,ioos:station:WAVCIS:CSI16:1,2010-10-02T11:15:00Z,29.4012,-89.0355,1.0,27.155,11111222 
WAVCIS,ioos:station:WAVCIS:CSI16:1,2010-10-02T11:30:00Z,29.4012,-89.0355,1.0,27.164,11111222 
WAVCIS,ioos:station:WAVCIS:CSI16:1,2010-10-02T11:45:00Z,29.4012,-89.0355,1.0,27.148,11111222 
WAVCIS,ioos:station:WAVCIS:CSI16:1,2010-10-02T12:00:00Z,29.4012,-89.0355,1.0,25.754,11111222 
WAVCIS,ioos:station:WAVCIS:CSI16:1,2010-10-02T12:15:00Z,29.4012,-89.0355,1.0,27.115,11111222 
WAVCIS,ioos:station:WAVCIS:CSI16:1,2010-10-02T12:30:00Z,29.4012,-89.0355,1.0,27.132,11111222 
WAVCIS,ioos:station:WAVCIS:CSI16:1,2010-10-02T12:45:00Z,29.4012,-89.0355,1.0,27.121,11111222 
WAVCIS,ioos:station:WAVCIS:CSI16:1,2010-10-02T13:00:00Z,29.4012,-89.0355,1.0,27.097,11111222 
WAVCIS,ioos:station:WAVCIS:CSI16:1,2010-10-02T13:15:00Z,29.4012,-89.0355,1.0,27.081,11111222 
WAVCIS,ioos:station:WAVCIS:CSI16:1,2010-10-02T13:30:00Z,29.4012,-89.0355,1.0,27.066,11111222 
WAVCIS,ioos:station:WAVCIS:CSI16:1,2010-10-02T13:45:00Z,29.4012,-89.0355,1.0,27.046,11111222 
WAVCIS,ioos:station:WAVCIS:CSI16:1,2010-10-02T14:00:00Z,29.4012,-89.0355,1.0,27.024,11111222 
WAVCIS,ioos:station:WAVCIS:CSI16:1,2010-10-02T14:15:00Z,29.4012,-89.0355,1.0,26.999,11111222 
WAVCIS,ioos:station:WAVCIS:CSI16:1,2010-10-02T14:30:00Z,29.4012,-89.0355,1.0,27.013,11111222 
WAVCIS,ioos:station:WAVCIS:CSI16:1,2010-10-02T14:45:00Z,29.4012,-89.0355,1.0,26.997,11111222 
WAVCIS,ioos:station:WAVCIS:CSI16:1,2010-10-02T15:00:00Z,29.4012,-89.0355,1.0,26.99,11111222 
WAVCIS,ioos:station:WAVCIS:CSI16:1,2010-10-02T15:15:00Z,29.4012,-89.0355,1.0,26.957,11111222 
WAVCIS,ioos:station:WAVCIS:CSI16:1,2010-10-02T15:30:00Z,29.4012,-89.0355,1.0,26.789,11111222 
WAVCIS,ioos:station:WAVCIS:CSI16:1,2010-10-02T15:45:00Z,29.4012,-89.0355,1.0,26.62,11111222 
WAVCIS,ioos:station:WAVCIS:CSI16:1,2010-10-02T16:00:00Z,29.4012,-89.0355,1.0,26.523,11111222 
WAVCIS,ioos:station:WAVCIS:CSI16:1,2010-10-02T16:15:00Z,29.4012,-89.0355,1.0,26.479,11111222 
WAVCIS,ioos:station:WAVCIS:CSI16:1,2010-10-02T16:30:00Z,29.4012,-89.0355,1.0,26.468,11111222 
WAVCIS,ioos:station:WAVCIS:CSI16:1,2010-10-02T16:45:00Z,29.4012,-89.0355,1.0,26.425,11111222 
WAVCIS,ioos:station:WAVCIS:CSI16:1,2010-10-02T17:00:00Z,29.4012,-89.0355,1.0,26.387,11111222 
WAVCIS,ioos:station:WAVCIS:CSI16:1,2010-10-02T17:15:00Z,29.4012,-89.0355,1.0,26.369,11111222 
WAVCIS,ioos:station:WAVCIS:CSI16:1,2010-10-02T17:30:00Z,29.4012,-89.0355,1.0,26.399,11111222 
WAVCIS,ioos:station:WAVCIS:CSI16:1,2010-10-02T17:45:00Z,29.4012,-89.0355,1.0,26.404,11111222 
WAVCIS,ioos:station:WAVCIS:CSI16:1,2010-10-02T18:00:00Z,29.4012,-89.0355,1.0,26.408,11111222 
WAVCIS,ioos:station:WAVCIS:CSI16:1,2010-10-02T18:15:00Z,29.4012,-89.0355,1.0,26.434,11111222 
WAVCIS,ioos:station:WAVCIS:CSI16:1,2010-10-02T18:30:00Z,29.4012,-89.0355,1.0,26.393,11111222 
WAVCIS,ioos:station:WAVCIS:CSI16:1,2010-10-02T18:45:00Z,29.4012,-89.0355,1.0,26.316,11111222 
WAVCIS,ioos:station:WAVCIS:CSI16:1,2010-10-02T19:00:00Z,29.4012,-89.0355,1.0,26.198,11111222 
WAVCIS,ioos:station:WAVCIS:CSI16:1,2010-10-02T19:15:00Z,29.4012,-89.0355,1.0,26.229,11111222 
WAVCIS,ioos:station:WAVCIS:CSI16:1,2010-10-02T19:30:00Z,29.4012,-89.0355,1.0,26.231,11111222 
WAVCIS,ioos:station:WAVCIS:CSI16:1,2010-10-02T19:45:00Z,29.4012,-89.0355,1.0,26.204,11111222 
WAVCIS,ioos:station:WAVCIS:CSI16:1,2010-10-02T20:00:00Z,29.4012,-89.0355,1.0,26.214,11111222 
WAVCIS,ioos:station:WAVCIS:CSI16:1,2010-10-02T20:15:00Z,29.4012,-89.0355,1.0,26.151,11111222 
WAVCIS,ioos:station:WAVCIS:CSI16:1,2010-10-02T20:30:00Z,29.4012,-89.0355,1.0,26.139,11111222 
WAVCIS,ioos:station:WAVCIS:CSI16:1,2010-10-02T20:45:00Z,29.4012,-89.0355,1.0,26.157,11111222 
WAVCIS,ioos:station:WAVCIS:CSI16:1,2010-10-02T21:00:00Z,29.4012,-89.0355,1.0,26.131,11111222 
WAVCIS,ioos:station:WAVCIS:CSI16:1,2010-10-02T21:15:00Z,29.4012,-89.0355,1.0,26.131,11111222 
WAVCIS,ioos:station:WAVCIS:CSI16:1,2010-10-02T21:30:00Z,29.4012,-89.0355,1.0,26.124,11111222 
WAVCIS,ioos:station:WAVCIS:CSI16:1,2010-10-02T21:45:00Z,29.4012,-89.0355,1.0,26.073,11111222 
WAVCIS,ioos:station:WAVCIS:CSI16:1,2010-10-02T22:00:00Z,29.4012,-89.0355,1.0,26.034,11111222 
WAVCIS,ioos:station:WAVCIS:CSI16:1,2010-10-02T22:15:00Z,29.4012,-89.0355,1.0,26.072,11111222 
WAVCIS,ioos:station:WAVCIS:CSI16:1,2010-10-02T22:30:00Z,29.4012,-89.0355,1.0,26.155,11111222 
WAVCIS,ioos:station:WAVCIS:CSI16:1,2010-10-02T22:45:00Z,29.4012,-89.0355,1.0,26.15,11111222 
WAVCIS,ioos:station:WAVCIS:CSI16:1,2010-10-02T23:00:00Z,29.4012,-89.0355,1.0,26.163,11111222 
WAVCIS,ioos:station:WAVCIS:CSI16:1,2010-10-02T23:15:00Z,29.4012,-89.0355,1.0,26.189,11111222 
WAVCIS,ioos:station:WAVCIS:CSI16:1,2010-10-02T23:30:00Z,29.4012,-89.0355,1.0,26.191,11111222 
WAVCIS,ioos:station:WAVCIS:CSI16:1,2010-10-02T23:45:00Z,29.4012,-89.0355,1.0,26.206,11111222 
WAVCIS,ioos:station:WAVCIS:CSI16:1,2010-10-03T00:00:00Z,29.4012,-89.0355,1.0,26.231,11111222 
WAVCIS,ioos:station:WAVCIS:CSI16:1,2010-10-03T00:15:00Z,29.4012,-89.0355,1.0,26.235,11111222 
WAVCIS,ioos:station:WAVCIS:CSI16:1,2010-10-03T00:30:00Z,29.4012,-89.0355,1.0,26.228,11111222 
WAVCIS,ioos:station:WAVCIS:CSI16:1,2010-10-03T00:45:00Z,29.4012,-89.0355,1.0,26.229,11111222 
WAVCIS,ioos:station:WAVCIS:CSI16:1,2010-10-03T01:00:00Z,29.4012,-89.0355,1.0,26.219,11111222 
WAVCIS,ioos:station:WAVCIS:CSI16:1,2010-10-03T01:15:00Z,29.4012,-89.0355,1.0,26.213,11111222 
WAVCIS,ioos:station:WAVCIS:CSI16:1,2010-10-03T01:30:00Z,29.4012,-89.0355,1.0,26.209,11111222 
WAVCIS,ioos:station:WAVCIS:CSI16:1,2010-10-03T01:45:00Z,29.4012,-89.0355,1.0,26.208,11111222 
WAVCIS,ioos:station:WAVCIS:CSI16:1,2010-10-03T02:00:00Z,29.4012,-89.0355,1.0,26.205,11111222 
WAVCIS,ioos:station:WAVCIS:CSI16:1,2010-10-03T02:15:00Z,29.4012,-89.0355,1.0,26.194,11111222 
WAVCIS,ioos:station:WAVCIS:CSI16:1,2010-10-03T02:30:00Z,29.4012,-89.0355,1.0,26.194,11111222 
WAVCIS,ioos:station:WAVCIS:CSI16:1,2010-10-03T02:45:00Z,29.4012,-89.0355,1.0,26.199,11111222 
WAVCIS,ioos:station:WAVCIS:CSI16:1,2010-10-03T03:00:00Z,29.4012,-89.0355,1.0,26.252,11111222 
WAVCIS,ioos:station:WAVCIS:CSI16:1,2010-10-03T03:15:00Z,29.4012,-89.0355,1.0,26.274,11111222 
WAVCIS,ioos:station:WAVCIS:CSI16:1,2010-10-03T03:30:00Z,29.4012,-89.0355,1.0,26.327,11111222 
WAVCIS,ioos:station:WAVCIS:CSI16:1,2010-10-03T03:45:00Z,29.4012,-89.0355,1.0,26.375,11111222 
WAVCIS,ioos:station:WAVCIS:CSI16:1,2010-10-03T04:00:00Z,29.4012,-89.0355,1.0,26.393,11111222 
WAVCIS,ioos:station:WAVCIS:CSI16:1,2010-10-03T04:15:00Z,29.4012,-89.0355,1.0,26.409,11111222 
WAVCIS,ioos:station:WAVCIS:CSI16:1,2010-10-03T04:30:00Z,29.4012,-89.0355,1.0,26.403,11111222 
WAVCIS,ioos:station:WAVCIS:CSI16:1,2010-10-03T04:45:00Z,29.4012,-89.0355,1.0,26.475,11111222 
WAVCIS,ioos:station:WAVCIS:CSI16:1,2010-10-03T05:00:00Z,29.4012,-89.0355,1.0,26.536,11111222 
WAVCIS,ioos:station:WAVCIS:CSI16:1,2010-10-03T05:15:00Z,29.4012,-89.0355,1.0,26.608,11111222 
WAVCIS,ioos:station:WAVCIS:CSI16:1,2010-10-03T05:30:00Z,29.4012,-89.0355,1.0,26.705,11111222 
WAVCIS,ioos:station:WAVCIS:CSI16:1,2010-10-03T05:45:00Z,29.4012,-89.0355,1.0,26.757,11111222 
WAVCIS,ioos:station:WAVCIS:CSI16:1,2010-10-03T06:00:00Z,29.4012,-89.0355,1.0,26.796,11111222 
WAVCIS,ioos:station:WAVCIS:CSI16:1,2010-10-03T06:15:00Z,29.4012,-89.0355,1.0,26.813,11111222 
WAVCIS,ioos:station:WAVCIS:CSI16:1,2010-10-03T06:30:00Z,29.4012,-89.0355,1.0,26.846,11111222 
WAVCIS,ioos:station:WAVCIS:CSI16:1,2010-10-03T06:45:00Z,29.4012,-89.0355,1.0,26.866,11111222 
WAVCIS,ioos:station:WAVCIS:CSI16:1,2010-10-03T07:00:00Z,29.4012,-89.0355,1.0,26.884,11111222 
WAVCIS,ioos:station:WAVCIS:CSI16:1,2010-10-03T07:15:00Z,29.4012,-89.0355,1.0,26.873,11111222 
WAVCIS,ioos:station:WAVCIS:CSI16:1,2010-10-03T07:30:00Z,29.4012,-89.0355,1.0,26.895,11111222 
WAVCIS,ioos:station:WAVCIS:CSI16:1,2010-10-03T07:45:00Z,29.4012,-89.0355,1.0,26.906,11111222 
WAVCIS,ioos:station:WAVCIS:CSI16:1,2010-10-03T08:00:00Z,29.4012,-89.0355,1.0,26.914,11111222 
WAVCIS,ioos:station:WAVCIS:CSI16:1,2010-10-03T08:15:00Z,29.4012,-89.0355,1.0,26.913,11111222 
WAVCIS,ioos:station:WAVCIS:CSI16:1,2010-10-03T08:30:00Z,29.4012,-89.0355,1.0,26.911,11111222 
WAVCIS,ioos:station:WAVCIS:CSI16:1,2010-10-03T08:45:00Z,29.4012,-89.0355,1.0,26.931,11111222 
WAVCIS,ioos:station:WAVCIS:CSI16:1,2010-10-03T09:00:00Z,29.4012,-89.0355,1.0,26.903,11111222 
WAVCIS,ioos:station:WAVCIS:CSI16:1,2010-10-03T09:15:00Z,29.4012,-89.0355,1.0,26.901,11111222 
WAVCIS,ioos:station:WAVCIS:CSI16:1,2010-10-03T09:30:00Z,29.4012,-89.0355,1.0,26.916,11111222 
WAVCIS,ioos:station:WAVCIS:CSI16:1,2010-10-03T09:45:00Z,29.4012,-89.0355,1.0,26.9,11111222 
WAVCIS,ioos:station:WAVCIS:CSI16:1,2010-10-03T10:00:00Z,29.4012,-89.0355,1.0,26.906,11111222 
WAVCIS,ioos:station:WAVCIS:CSI16:1,2010-10-03T10:15:00Z,29.4012,-89.0355,1.0,26.903,11111222 
WAVCIS,ioos:station:WAVCIS:CSI16:1,2010-10-03T10:30:00Z,29.4012,-89.0355,1.0,26.924,11111222 
WAVCIS,ioos:station:WAVCIS:CSI16:1,2010-10-03T10:45:00Z,29.4012,-89.0355,1.0,26.922,11111222 
WAVCIS,ioos:station:WAVCIS:CSI16:1,2010-10-03T11:00:00Z,29.4012,-89.0355,1.0,26.911,11111222 
WAVCIS,ioos:station:WAVCIS:CSI16:1,2010-10-03T11:15:00Z,29.4012,-89.0355,1.0,26.91,11111222 
WAVCIS,ioos:station:WAVCIS:CSI16:1,2010-10-03T11:30:00Z,29.4012,-89.0355,1.0,26.906,11111222 
WAVCIS,ioos:station:WAVCIS:CSI16:1,2010-10-03T11:45:00Z,29.4012,-89.0355,1.0,26.907,11111222 
WAVCIS,ioos:station:WAVCIS:CSI16:1,2010-10-03T12:00:00Z,29.4012,-89.0355,1.0,26.878,11111222 
WAVCIS,ioos:station:WAVCIS:CSI16:1,2010-10-03T12:15:00Z,29.4012,-89.0355,1.0,26.914,11111222 
WAVCIS,ioos:station:WAVCIS:CSI16:1,2010-10-03T12:30:00Z,29.4012,-89.0355,1.0,26.91,11111222 
WAVCIS,ioos:station:WAVCIS:CSI16:1,2010-10-03T12:45:00Z,29.4012,-89.0355,1.0,26.882,11111222 
WAVCIS,ioos:station:WAVCIS:CSI16:1,2010-10-03T13:00:00Z,29.4012,-89.0355,1.0,26.872,11111222 
WAVCIS,ioos:station:WAVCIS:CSI16:1,2010-10-03T13:15:00Z,29.4012,-89.0355,1.0,26.891,11111222 
WAVCIS,ioos:station:WAVCIS:CSI16:1,2010-10-03T13:30:00Z,29.4012,-89.0355,1.0,26.851,11111222 
WAVCIS,ioos:station:WAVCIS:CSI16:1,2010-10-03T13:45:00Z,29.4012,-89.0355,1.0,26.857,11111222 
WAVCIS,ioos:station:WAVCIS:CSI16:1,2010-10-03T14:00:00Z,29.4012,-89.0355,1.0,26.828,11111222 
WAVCIS,ioos:station:WAVCIS:CSI16:1,2010-10-03T14:15:00Z,29.4012,-89.0355,1.0,26.774,11111222 
WAVCIS,ioos:station:WAVCIS:CSI16:1,2010-10-03T14:30:00Z,29.4012,-89.0355,1.0,26.708,11111222 
WAVCIS,ioos:station:WAVCIS:CSI16:1,2010-10-03T14:45:00Z,29.4012,-89.0355,1.0,26.589,11111222 
WAVCIS,ioos:station:WAVCIS:CSI16:1,2010-10-03T15:00:00Z,29.4012,-89.0355,1.0,26.491,11111222 
WAVCIS,ioos:station:WAVCIS:CSI16:1,2010-10-03T15:15:00Z,29.4012,-89.0355,1.0,26.396,11111222 